Weather reports worldwide

Advertisment
Shobdon, United Kingdom (3520): temperature & dewpoint: 08.12.2017 18:00:00 - 14.12.2017 18:00:00 (GMT)Shobdon, United Kingdom (3520): temperature -20cm & temperature -100cm: 08.12.2017 18:00:00 - 14.12.2017 18:00:00 (GMT)Shobdon, United Kingdom (3520): wind speed & gusts: 08.12.2017 18:00:00 - 14.12.2017 18:00:00 (GMT)Shobdon, United Kingdom (3520): wind direction: 08.12.2017 18:00:00 - 14.12.2017 18:00:00 (GMT)Shobdon, United Kingdom (3520): reduced air pressure: 08.12.2017 18:00:00 - 14.12.2017 18:00:00 (GMT)Shobdon, United Kingdom (3520): visibility: 08.12.2017 18:00:00 - 14.12.2017 18:00:00 (GMT)Shobdon, United Kingdom (3520): sunshine duration: 08.12.2017 18:00:00 - 14.12.2017 18:00:00 (GMT)Shobdon, United Kingdom (3520): precipitation: 08.12.2017 18:00:00 - 14.12.2017 18:00:00 (GMT)
Date & Time tt [°C] td [°C] tt -20cm [°C] tt -100cm [°C] ff [km/h] ff [kn] fx [km/h] fx [kn] dd ppp [hPa] vv [km] sd [min] rr [mm]
14.12.2017 18:00:00 2,8 1,9 - - 4 2 - - S 987,0 15 0 0,4
14.12.2017 17:00:00 3,5 2,0 - - 9 5 - - S 986,7 19 0 0,2
14.12.2017 16:00:00 3,9 2,0 - - 13 7 - - W 987,1 12 0 0,2
14.12.2017 15:00:00 4,3 1,9 - - 13 7 - - W 987,3 19 12 0,0
14.12.2017 14:00:00 5,9 2,1 - - 13 7 - - WSW 987,9 22 54 0,0
14.12.2017 13:00:00 5,1 1,6 - - 16 9 - - WSW 988,6 22 48 0,0
14.12.2017 12:00:00 4,8 1,7 - - 16 9 - - WSW 989,5 26 48 0,0
14.12.2017 11:00:00 3,9 1,7 - - 21 11 - - WSW 990,0 20 18 0,2
14.12.2017 10:00:00 4,1 1,1 - - 18 10 - - W 990,4 25 18 0,0
14.12.2017 09:00:00 3,1 1,2 4,5 7,7 15 8 - - W 990,8 25 0 0,0
14.12.2017 08:00:00 2,0 1,2 - - 11 6 - - W 991,2 18 0 1,6
14.12.2017 07:00:00 3,2 0,7 - - 24 13 50 27 W 991,3 23 0 0,0
14.12.2017 06:00:00 3,1 0,5 - - 29 16 54 29 W 991,1 24 0 0,0
14.12.2017 05:00:00 3,8 0,4 - - 31 17 52 28 W 991,1 21 0 0,0
14.12.2017 04:00:00 3,7 0,9 - - 16 9 50 27 W 991,6 22 0 0,0
14.12.2017 03:00:00 4,1 1,1 - - 29 16 50 27 W 991,9 21 0 0,4
14.12.2017 02:00:00 3,8 1,4 - - 29 16 55 30 W 991,9 16 0 0,4
14.12.2017 01:00:00 3,9 1,2 - - 29 16 57 31 W 991,8 25 0 0,2
14.12.2017 00:00:00 3,8 1,0 - - 28 15 54 29 W 991,9 12 - 0,4
13.12.2017 23:00:00 3,4 0,5 - - 22 12 59 32 W 991,9 7 0 0,2
13.12.2017 22:00:00 3,6 -0,6 - - 26 14 55 30 W 991,1 25 0 0,0
13.12.2017 21:00:00 3,7 0,1 - - 28 15 48 26 W 990,2 26 0 0,2
13.12.2017 20:00:00 2,4 1,7 - - 15 8 - - W 989,2 7 0 2,0
13.12.2017 19:00:00 2,1 1,0 - - 21 11 - - WSW 989,8 6 0 1,6
13.12.2017 18:00:00 3,5 0,6 - - 16 9 - - WSW 990,2 20 0 0,4
13.12.2017 17:00:00 4,3 0,1 - - 18 10 - - W 991,4 22 0 0,2
13.12.2017 16:00:00 4,5 0,3 - - 18 10 - - W 991,8 22 24 0,6
13.12.2017 15:00:00 4,6 1,5 - - 26 14 - - W 992,6 9 36 1,2
13.12.2017 14:00:00 4,6 1,5 - - 21 11 54 29 WNW 992,1 28 0 3,2
13.12.2017 13:00:00 5,4 4,7 - - 13 7 - - W 991,7 3,4 18 3,0
13.12.2017 12:00:00 5,4 3,6 - - 13 7 - - SW 992,6 25 42 2,6
13.12.2017 11:00:00 5,6 4,3 - - 11 6 - - SSW 994,7 19 6 3,8
13.12.2017 10:00:00 3,0 2,9 - - 4 2 - - SW 996,4 14 0 1,0
13.12.2017 09:00:00 2,4 2,3 5,0 8,0 4 2 - - NE 997,8 4,8 0 1,0
13.12.2017 08:00:00 1,9 1,4 - - 5 3 - - WSW 998,8 5 0 1,8
13.12.2017 07:00:00 3,2 2,8 - - 9 5 - - SSW 999,7 11 0 3,4
13.12.2017 06:00:00 3,6 2,8 - - 11 6 - - S 1000,3 13 0 2,8
13.12.2017 05:00:00 4,4 2,9 - - 11 6 - - SSW 1000,8 16 0 0,0
13.12.2017 04:00:00 3,9 3,6 - - 16 9 - - WSW 1001,2 16 0 0,0
13.12.2017 03:00:00 1,4 1,4 - - 2 1 - - S 1001,7 5 0 0,0
13.12.2017 02:00:00 1,2 1,1 - - 4 2 - - WSW 1001,9 1,5 0 0,0
13.12.2017 01:00:00 0,6 0,5 - - 2 1 - - WSW 1001,9 0,4 0 0,0
13.12.2017 00:00:00 1,4 1,3 - - 2 1 - - N 1002,1 1,3 - 0,0
12.12.2017 23:00:00 2,0 2,0 - - 5 3 - - N 1002,0 4,3 0 0,0
12.12.2017 22:00:00 1,2 1,2 - - 5 3 - - ENE 1002,5 5 0 0,0
12.12.2017 21:00:00 0,2 0,1 - - 2 1 - - WSW 1003,4 2,1 0 0,0
12.12.2017 20:00:00 -0,6 -0,7 - - 4 2 - - W 1004,9 4,6 0 0,0
12.12.2017 19:00:00 -1,9 -2,2 - - 0 0 - - N 1006,0 6 0 0,0
12.12.2017 18:00:00 -2,8 -3,2 - - 2 1 - - ENE 1006,5 6 0 0,0
12.12.2017 17:00:00 -3,3 -3,8 - - 2 1 - - S 1007,5 6 0 0,0
12.12.2017 16:00:00 -3,1 -3,6 - - 0 0 - - N 1007,6 7 0 0,0
12.12.2017 15:00:00 -3,8 -4,5 - - 2 1 - - ESE 1008,2 6 0 0,0
12.12.2017 14:00:00 -4,3 -5,2 - - 5 3 - - E 1008,7 6 6 0,0
12.12.2017 13:00:00 -4,3 -4,7 - - 2 1 - - E 1008,9 4,1 36 0,0
12.12.2017 12:00:00 -6,2 -6,8 - - 0 0 - - N 1008,8 4,1 6 0,0
12.12.2017 11:00:00 -7,8 -8,5 - - 4 2 - - E 1009,3 0,8 30 0,0
12.12.2017 10:00:00 -9,6 -10,4 - - 0 0 - - N 1009,6 0,1 0 0,0
12.12.2017 09:00:00 -12,6 -13,8 5,2 8,2 4 2 - - W 1008,9 3,5 0 0,0
12.12.2017 08:00:00 -12,0 -13,5 - - 2 1 - - E 1008,8 13 0 0,0
12.12.2017 07:00:00 -9,8 -10,8 - - 5 3 - - ENE 1007,5 14 0 0,0
12.12.2017 06:00:00 -5,1 -5,4 - - 9 5 - - NW 1006,8 21 0 0,0
12.12.2017 05:00:00 -6,5 -6,7 - - 8 4 - - W 1006,0 20 0 0,0
12.12.2017 04:00:00 -9,8 -11,3 - - 4 2 - - WNW 1005,3 1,0 0 0,0
12.12.2017 03:00:00 -6,7 -7,5 - - 4 2 - - SE 1005,1 9 0 0,0
12.12.2017 02:00:00 -5,0 -6,4 - - 5 3 - - N 1003,8 16 0 0,0
12.12.2017 01:00:00 -5,6 -5,8 - - 11 6 - - W 1002,6 15 0 0,0
12.12.2017 00:00:00 -8,2 -9,4 - - 4 2 - - W 1002,0 11 - 0,0
11.12.2017 23:00:00 -6,7 -8,0 - - 4 2 - - SW 1000,7 4,6 0 0,0
11.12.2017 22:00:00 -4,3 -5,6 - - 4 2 - - SW 999,8 15 0 0,0
11.12.2017 21:00:00 -2,1 -2,4 - - 11 6 - - NW 998,7 22 0 0,0
11.12.2017 20:00:00 -4,2 -4,9 - - 4 2 - - ENE 997,4 18 0 0,0
11.12.2017 19:00:00 -1,7 -2,8 - - 9 5 - - NW 995,5 22 0 0,0
11.12.2017 18:00:00 -1,7 -3,5 - - 13 7 - - NW 994,3 23 0 0,0
11.12.2017 17:00:00 -2,1 -4,4 - - 8 4 - - WNW 993,6 23 0 0,0
11.12.2017 16:00:00 -0,2 -3,9 - - 11 6 - - NW 992,6 24 48 0,0
11.12.2017 15:00:00 1,2 -4,1 - - 9 5 - - NW 992,0 25 54 0,0
11.12.2017 14:00:00 1,4 -2,3 - - 13 7 - - NNW 991,0 23 60 0,0
11.12.2017 13:00:00 1,1 -2,0 - - 15 8 - - N 990,1 21 60 0,0
11.12.2017 12:00:00 0,4 -2,3 - - 15 8 - - N 989,5 20 60 0,0
11.12.2017 11:00:00 -0,6 -2,8 - - 16 9 - - N 988,9 20 54 0,0
11.12.2017 10:00:00 -1,8 -3,1 - - 16 9 - - N 988,0 17 0 0,0
11.12.2017 09:00:00 -1,9 -3,2 5,4 8,5 16 9 - - N 986,9 18 0 0,0
11.12.2017 08:00:00 -1,2 -2,6 - - 16 9 - - NNE 985,9 16 0 0,0
11.12.2017 07:00:00 -0,7 -1,9 - - 16 9 - - N 984,9 12 0 0,0
11.12.2017 06:00:00 -0,3 -1,2 - - 16 9 - - NNE 983,4 9 0 0,0
11.12.2017 05:00:00 -0,1 -0,8 - - 16 9 - - NNE 982,8 6 0 0,0
11.12.2017 04:00:00 -0,1 -0,7 - - 18 10 - - NNE 983,1 1,9 0 0,0
11.12.2017 03:00:00 -0,1 -0,6 - - 18 10 - - NNE 983,5 1,8 0 0,0
11.12.2017 02:00:00 -0,1 -0,7 - - 16 9 - - NNE 983,1 2,8 0 0,0
11.12.2017 01:00:00 0,2 -0,3 - - 13 7 - - NNE 982,4 2,4 0 0,2
11.12.2017 00:00:00 0,3 -0,2 - - 13 7 - - NNE 982,6 8 - 0,0
10.12.2017 23:00:00 0,3 -0,2 - - 11 6 - - NE 982,0 4,4 0 0,0
10.12.2017 22:00:00 0,2 -0,3 - - 5 3 - - NE 981,8 3,1 0 0,0
10.12.2017 21:00:00 0,1 -0,4 - - 5 3 - - NE 981,4 2,4 0 0,0
10.12.2017 20:00:00 -0,1 -0,5 - - 0 0 - - N 980,8 1,8 0 0,0
10.12.2017 19:00:00 -0,2 -0,7 - - 0 0 - - N 980,6 1,3 0 0,2
10.12.2017 18:00:00 -0,3 -0,8 - - 0 0 - - N 980,1 1,2 0 0,0
10.12.2017 17:00:00 -0,3 -0,8 - - 0 0 - - N 979,7 1,2 0 0,0
10.12.2017 16:00:00 -0,1 -0,7 - - 0 0 - - N 979,3 1,2 0 0,0
10.12.2017 15:00:00 0,2 -0,5 - - 5 3 - - NNE 979,0 1,6 0 0,0
10.12.2017 14:00:00 0,3 -0,4 - - 8 4 - - NNE 978,7 0,9 0 0,0
10.12.2017 13:00:00 0,5 -0,2 - - 8 4 - - N 978,6 4,0 0 0,0
10.12.2017 12:00:00 0,2 -0,3 - - 11 6 - - N 978,1 1,7 0 0,0
10.12.2017 11:00:00 0,1 -0,3 - - 11 6 - - NNE 977,6 2,5 0 0,0
10.12.2017 10:00:00 0,1 -0,1 - - 15 8 - - NE 976,3 2,1 0 0,0
10.12.2017 09:00:00 0,0 -0,1 5,7 8,7 18 10 - - ENE 976,1 0,5 0 0,0
10.12.2017 08:00:00 0,1 0,0 - - 21 11 - - ENE 977,7 0,3 0 0,0
10.12.2017 07:00:00 0,2 0,0 - - 16 9 - - E 979,8 0,7 0 0,0
10.12.2017 06:00:00 0,1 0,0 - - 16 9 - - E 982,3 0,7 0 0,0
10.12.2017 05:00:00 -0,5 -0,7 - - 13 7 - - E 986,1 0,7 0 0,0
10.12.2017 04:00:00 -0,4 -0,7 - - 9 5 - - E 989,9 0,5 0 0,0
10.12.2017 03:00:00 -0,2 -1,3 - - 8 4 - - E 993,4 1,8 0 0,0
10.12.2017 02:00:00 -0,1 -1,4 - - 8 4 - - E 995,6 17 0 0,0
10.12.2017 01:00:00 -1,5 -1,8 - - 5 3 - - ENE 998,8 14 0 0,0
10.12.2017 00:00:00 -2,7 -3,4 - - 4 2 - - NE 1001,4 12 - 0,0
09.12.2017 23:00:00 -1,3 -1,8 - - 4 2 - - E 1003,5 14 0 0,0
09.12.2017 22:00:00 -1,3 -1,8 - - 0 0 - - N 1005,6 18 0 0,0
09.12.2017 21:00:00 -1,1 -2,0 - - 2 1 - - NW 1006,7 20 0 0,0
09.12.2017 20:00:00 -0,1 -1,7 - - 2 1 - - WSW 1008,5 23 0 0,0
09.12.2017 19:00:00 0,8 -1,1 - - 4 2 - - W 1009,4 23 0 0,0
09.12.2017 18:00:00 0,8 -1,0 - - 4 2 - - W 1010,5 23 0 0,0
09.12.2017 17:00:00 0,7 -0,9 - - 4 2 - - WNW 1011,1 25 0 0,0
09.12.2017 16:00:00 1,1 -1,0 - - 2 1 - - NW 1012,2 24 0 0,0
09.12.2017 15:00:00 1,7 -0,6 - - 8 4 - - SW 1013,1 25 0 0,0
09.12.2017 14:00:00 1,8 -0,3 - - 5 3 - - W 1014,4 25 0 0,0
09.12.2017 13:00:00 2,3 -0,2 - - 5 3 - - W 1015,4 26 0 0,0
09.12.2017 12:00:00 2,2 -0,3 - - 9 5 - - W 1016,4 26 0 0,0
09.12.2017 11:00:00 1,9 -0,3 - - 11 6 - - W 1017,2 27 0 0,0
09.12.2017 10:00:00 1,7 -0,6 - - 15 8 - - W 1017,7 28 42 0,0
09.12.2017 09:00:00 -1,8 -2,7 6,5 9,0 5 3 - - SW 1018,6 22 0 0,0
09.12.2017 08:00:00 -0,8 -1,1 - - 9 5 - - NW 1018,9 26 0 0,0
09.12.2017 07:00:00 -4,3 -5,0 - - 4 2 - - W 1019,2 24 0 0,0
09.12.2017 06:00:00 -3,9 -5,0 - - 5 3 - - W 1019,7 24 0 0,0
09.12.2017 05:00:00 -3,4 -4,6 - - 5 3 - - NW 1019,8 24 0 0,0
09.12.2017 04:00:00 -0,6 -2,2 - - 8 4 - - NW 1020,0 27 0 0,0
09.12.2017 03:00:00 -2,3 -3,5 - - 2 1 - - WSW 1020,4 26 0 0,0
09.12.2017 02:00:00 -1,2 -3,2 - - 9 5 - - WSW 1020,7 27 0 0,0
09.12.2017 01:00:00 0,4 -2,6 - - 11 6 - - NW 1020,5 27 0 0,0
09.12.2017 00:00:00 0,5 -2,1 - - 13 7 - - WNW 1020,6 26 - 0,0
08.12.2017 23:00:00 0,7 -1,7 - - 15 8 - - NW 1020,5 26 0 0,0
08.12.2017 22:00:00 0,5 -1,8 - - 9 5 - - WNW 1020,8 5 0 0,0
08.12.2017 21:00:00 0,9 -2,1 - - 8 4 - - NW 1020,8 29 0 0,0
08.12.2017 20:00:00 1,4 -2,2 - - 11 6 - - NNW 1020,7 27 0 0,0
08.12.2017 19:00:00 0,3 -2,4 - - 5 3 - - WNW 1020,4 27 0 0,0
08.12.2017 18:00:00 0,9 -2,1 - - 9 5 - - WNW 1019,7 26 0 0,0

tt = temperature
td = dewpoint
tt -20cm = temperature -20cm
tt -100cm = temperature -100cm
ff = wind speed
fx = gusts
dd = wind direction
ppp = reduced air pressure
vv = visibility
sd = sunshine duration
rr = precipitation

Next stations